Regional Weather Roundup
Issued by NWS Columbia, SC

Home | Current Version | Previous Version | Text Only | Print | Product List | Glossary On
Versions: 1 2 3 4 5 6 7 8 9 10 11 12 13 14 15 16 17 18 19 20 21 22 23 24 25 26 27 28 29 30 31 32 33 34 35 36 37 38 39 40 41 42 43 44 45 46 47 48 49 50
000
ASUS42 KCAE 081210
RWRCAE
REGIONAL WEATHER ROUNDUP
NATIONAL WEATHER SERVICE COLUMBIA SC
700 AM EST THU DEC 08 2016

NOTE: "FAIR" INDICATES FEW OR NO CLOUDS BELOW 12,000 FEET WITH NO
SIGNIFICANT WEATHER AND/OR OBSTRUCTIONS TO VISIBILITY.

NOT ALL STATIONS ARE QUALITY CONTROLLED BY THE NATIONAL
WEATHER SERVICE. USE DATA WITH CAUTION...ESPECIALLY
DEWPOINT OBSERVATIONS.

SCZ001>056-GAZ040-063>065-077-081300-
...UPSTATE SOUTH CAROLINA...

CITY           SKY/WX    TMP DP  RH WIND       PRES   REMARKS
ANDERSON       CLOUDY    45  43  93 CALM      30.07R
6HR MIN TEMP:  45; 6HR MAX TEMP:  47;

LIBERTY        CLOUDY    47  46  99 CALM      30.05S FOG
6HR MIN TEMP:  47; 6HR MAX TEMP:  47;

SPARTANBURG    CLOUDY    46  45  93 CALM      30.05S FOG
CLEMSON        CLOUDY    47  43  86 CALM      30.08R FOG
6HR MIN TEMP:  46; 6HR MAX TEMP:  49;

GREENVILLE     CLOUDY    50  46  86 CALM      30.06S
6HR MIN TEMP:  49; 6HR MAX TEMP:  51;

GREENWOOD      CLOUDY    45  43  93 SW6       30.09R
6HR MIN TEMP:  45; 6HR MAX TEMP:  46;

GREER          CLOUDY    47  44  90 CALM      30.05S
6HR MIN TEMP:  47; 6HR MAX TEMP:  50;

ROCK HILL      CLOUDY    48  47  96 CALM      30.07R FOG
6HR MIN TEMP:  48; 6HR MAX TEMP:  50;

CHESTER        CLOUDY    45  45 100 W3        30.08S FOG
LAURENS          N/A     46  46 100 W3        30.07R FOG


...CENTRAL SOUTH CAROLINA...

CITY           SKY/WX    TMP DP  RH WIND       PRES   REMARKS
COLUMBIA APT   CLOUDY    53  50  89 SW6       30.08R
6HR MIN TEMP:  50; 6HR MAX TEMP:  53;

COLUMBIA OWENS CLOUDY    54  49  83 W8        30.09R
6HR MIN TEMP:  51; 6HR MAX TEMP:  54;

MCENTIRE ANGB  CLOUDY    52  51  96 W3        30.08R FOG
6HR MIN TEMP:  49; 6HR MAX TEMP:  52;

ORANGEBURG     CLOUDY    53  51  93 W8        30.09R
6HR MIN TEMP:  52; 6HR MAX TEMP:  53; 6HR PCP: TRACE;

SUMTER SHAW    CLOUDY    52  50  91 W5        30.06R
6HR MIN TEMP:  50; 6HR MAX TEMP:  53;

NEWBERRY       CLOUDY    46  46 100 W3        30.11R
AIKEN          FAIR      46  45  93 W7        30.12R
MANNING        CLOUDY    52  50  93 CALM      30.08S
LANCASTER      CLOUDY    48  48 100 W6        30.07S
WINNSBORO      CLOUDY    48  48 100 W3        30.07R FOG


...EASTERN AND COASTAL SOUTH CAROLINA...

CITY           SKY/WX    TMP DP  RH WIND       PRES   REMARKS
MYRTLE BEACH   MOCLDY    50  46  87 W5        30.09R
N MYRTLE BCH   CLOUDY    50  50 100 W5        30.07R
6HR MIN TEMP:  46; 6HR MAX TEMP:  51;

CONWAY         CLOUDY    50  48  93 CALM      30.08R FOG
MARION         PTSUNNY   50  46  87 CALM      30.07R
HARTSVILLE     CLOUDY    46  46 100 W5        30.07R VSB 1
FLORENCE       CLOUDY    52  51  97 CALM      30.06R
6HR MIN TEMP:  51; 6HR MAX TEMP:  53;

DARLINGTON     CLOUDY    50  48  93 W5        30.07R FOG
6HR MIN TEMP:  46; 6HR MAX TEMP:  52;

CHARLESTON APT CLOUDY    54  51  90 W3        30.08R
6HR MIN TEMP:  53; 6HR MAX TEMP:  55;

WALTERBORO     CLOUDY    55 N/A N/A W3        30.09F
BEAUFORT       PTCLDY    53  49  86 W6        30.10R
6HR MIN TEMP:  53; 6HR MAX TEMP:  57;

HILTON HEAD    CLEAR     54  50  87 MISG      30.09S


...EASTERN GEORGIA...

CITY           SKY/WX    TMP DP  RH WIND       PRES   REMARKS
AUGUSTA BUSH F PTCLDY    47  43  86 W5        30.10R
6HR MIN TEMP:  47; 6HR MAX TEMP:  55;

AUGUSTA DANIEL PTCLDY    47  42  83 VRB3      30.11R
6HR MIN TEMP:  47; 6HR MAX TEMP:  54;

THOMSON        CLOUDY    46  46 100 W5        30.16R
6HR MIN TEMP:  46; 6HR MAX TEMP:  50;

WASHINGTON     FAIR      45  45 100 W7        30.10R
CLAXTON        FAIR      49  47  95 W7        30.13S
SYLVANIA       SUNNY    N/A N/A N/A W6        30.12R
STATESBORO     CLEAR     48  46  94 NW3       30.12S
6HR MIN TEMP:  46; 6HR MAX TEMP:  55;

SAVANNAH       PTCLDY    49  46  90 W8        30.12R
6HR MIN TEMP:  48; 6HR MAX TEMP:  57;



...SOUTHERN NORTH CAROLINA...

CITY           SKY/WX    TMP DP  RH WIND       PRES   REMARKS
CHARLOTTE      CLOUDY    49  47  93 W6        30.07R FOG
6HR MIN TEMP:  49; 6HR MAX TEMP:  50;

MONROE         CLOUDY    50  46  86 W7        30.05R
6HR MIN TEMP:  49; 6HR MAX TEMP:  50;

WADESBORO      CLOUDY    49  47  92 CALM      30.06R
ROCKINGHAM     MOSUNNY   48  48 100 CALM      30.05R
RUTHERFORDTON  CLOUDY    45  45 100 CALM      30.06S FOG
ASHEVILLE      CLOUDY    40  30  67 N10G21    30.10R WCI  33
6HR MIN TEMP:  40; 6HR MAX TEMP:  44;


$$



USA.gov is the U.S. government's official web portal to all federal, state and local government web resources and services.